{"data":{"norad_id":55954,"epoch":"2026-09-20T22:55:31.516896Z","epoch_age_seconds":66872,"freshness":"FRESH","line1":"1 55954U 23037AS  26263.95522589  .00000038  00000+0  10954-4 0  9990","line2":"2 55954  69.9989 132.0588 0002585 268.6029  91.4833 14.98330953193725","mean_motion":14.98330953,"eccentricity":0.0002585,"inclination_deg":69.9989,"raan_deg":132.0588,"arg_perigee_deg":268.6029,"mean_anomaly_deg":91.4833,"bstar":1.0954e-5,"rev_number":19372,"period_min":96.106937997696,"perigee_km":570.2563197716,"apogee_km":573.84956797258,"semimajor_km":6950.1899438721,"source":"CELESTRAK","updated_at":"2026-09-21T09:00:33.346409Z"}}